This demonstration page uses our WeatherBlox Daily Observations layout. Learn more.

36.17497, -115.13722

Hourly Observations for July 20, 2015

Temp ( °F °C ) Dew Point ( °F °C ) Humidity (%) Winds ( mph kmh ) Pressure ( in mb ) Visibility ( mi km ) Precip ( " mm )
12:53 am 00:53 Mostly Cloudy with Light Rain 82 28 57 14 42 42 NW 25 41 29.91 1013 10 16.09344 0.001 0.001
1:53 am 01:53 Partly Cloudy 81 27 57 14 45 45 NNW 20 31 29.91 1013 10 16.09344 0.001 0.001
2:53 am 02:53 Cloudy 77 25 59 15 54 54 NNW 24 39 29.97 1015 10 16.09344 0.001 0.001
3:53 am 03:53 Cloudy with Rain 73 23 63 17 69 69 NNW 17 28 29.97 1015 8 12.874752 0.001 0.001
4:53 am 04:53 Cloudy 72 22 63 17 73 73 N 10 17 29.97 1015 10 16.09344 0 0
5:53 am 05:53 Mostly Cloudy 72 22 64 18 78 78 NNW 12 19 29.97 1015 10 16.09344 0 0
6:53 am 06:53 Cloudy 73 23 63 17 69 69 NNW 9 15 29.97 1015 10 16.09344 0 0
7:53 am 07:53 Cloudy 73 23 63 17 69 69 N 15 24 30 1016 10 16.09344 0 0
8:53 am 08:53 Cloudy 72 22 63 17 73 73 N 12 19 30 1016 10 16.09344 0.001 0.001
9:53 am 09:53 Cloudy 73 23 63 17 69 69 NNW 12 19 30 1016 10 16.09344 0 0
10:53 am 10:53 Mostly Sunny 79 26 61 16 54 54 N 12 19 29.97 1015 10 16.09344 0 0
11:53 am 11:53 Sunny 79 26 61 16 54 54 NNW 8 13 29.97 1015 10 16.09344 0 0
12:53 pm 12:53 Cloudy 82 28 59 15 45 45 NE 8 13 29.94 1014 10 16.09344 0 0
1:53 pm 13:53 Cloudy 82 28 57 14 42 42 N 5 7 29.94 1014 10 16.09344 0 0
2:53 pm 14:53 Cloudy 82 28 59 15 45 45 NW 8 13 29.91 1013 10 16.09344 0 0
3:53 pm 15:53 Sunny 84 29 57 14 40 40 N 7 11 29.88 1012 10 16.09344 0 0
4:53 pm 16:53 Cloudy 84 29 57 14 40 40 NW 8 13 29.85 1011 10 16.09344 0 0
5:53 pm 17:53 Mostly Cloudy 84 29 55 13 37 37 NW 7 11 29.83 1010 10 16.09344 0 0
6:53 pm 18:53 Mostly Cloudy 84 29 55 13 37 37 NNW 5 7 29.83 1010 10 16.09344 0 0
7:53 pm 19:53 Partly Cloudy 84 29 55 13 37 37 NNW 5 7 29.83 1010 10 16.09344 0 0
8:53 pm 20:53 Clear 82 28 57 14 42 42 N 6 9 29.85 1011 10 16.09344 0 0
9:53 pm 21:53 Mostly Clear 81 27 57 14 45 45 NNE 6 9 29.85 1011 10 16.09344 0 0
10:53 pm 22:53 Clear 81 27 57 14 45 45 Calm 29.85 1011 10 16.09344 0 0
11:53 pm 23:53 Clear 81 27 57 14 45 45 NNW 3 6 29.85 1011 10 16.09344 0 0

Powered by AerisWeather